Preview of NWS' New Version of Forecast
This preview is not operational and should not be used for support decisions.

Regional Weather Roundup (RWR)

Issued by National Weather Service (NWS)

                            
000
ASUS43 KMKX 190211
RWRWI 

WISCONSIN REGIONAL WEATHER ROUNDUP
NATIONAL WEATHER SERVICE MILWAUKEE/SULLIVAN WI
900 PM CDT SUN AUG 18 2019

NOTE: "FAIR" INDICATES FEW OR NO CLOUDS BELOW 12,000 FEET WITH NO
SIGNIFICANT WEATHER AND/OR OBSTRUCTIONS TO VISIBILITY.

WIZ001-002-006>008-014>016-023>028-190300-
NORTHWEST WISCONSIN
  
CITY           SKY/WX    TMP DP  RH WIND       PRES   REMARKS
SUPERIOR ARPT  FAIR      55  46  72 CALM      29.84R                  
ASHLAND        FAIR      54  49  83 SW6       29.84R                  
HAYWARD        FAIR      56  52  86 CALM      29.87R                  
SIREN          FAIR      59  50  71 CALM      29.88R                  
CUMBERLAND     FAIR      57  52  82 W3        29.89R                  
RICE LAKE      FAIR      60  45  58 CALM      29.90R                  
CHETEK         FAIR      61  55  80 CALM      29.89R                  
LADYSMITH      FAIR      62  54  74 W5        29.90R                  
EAU CLAIRE     FAIR      62  55  77 CALM      29.87R                  
MENOMONIE      FAIR      63  51  65 W3        29.88R                  
NEW RICHMOND   FAIR      58  53  82 W3        29.90R                  
OSCEOLA        FAIR      60  55  85 CALM      29.92R                  
$$
 
WIZ003>005-009-010-017-018-190300-
NORTH CENTRAL WISCONSIN
  
CITY           SKY/WX    TMP DP  RH WIND       PRES   REMARKS
MANITOWISH WTR FAIR      53  53 100 CALM      29.86R FOG              
ARBOR VITAE    FAIR      59  57  92 CALM      29.87R                  
WOODRUFF       FAIR      59  57  92 CALM      29.87R                  
RHINELANDER    FAIR      57  52  83 W5        29.87R                  
EAGLE RIVER    FAIR      55  54  98 CALM      29.86R                  
LAND O LAKES   FAIR      53  52  95 CALM      29.88R                  
PHILLIPS       FAIR      58  55  89 CALM      29.87R                  
TOMAHAWK       FAIR      55  53  95 CALM      29.88R                  
MEDFORD        FAIR      59  52  76 NW6       29.88R                  
MERRILL        FAIR      63  57  81 NW3       29.87R                  
$$
 
WIZ029-030-035-036-043>047-190300-
CENTRAL WISCONSIN
  
CITY           SKY/WX    TMP DP  RH WIND       PRES   REMARKS
WAUSAU         FAIR      64  57  78 W6        29.85R                  
MOSINEE        CLEAR     63  57  82 W7        29.88R                  
MARSHFIELD     FAIR      62  56  80 W5        29.87R                  
STEVENS POINT  FAIR      66  57  72 NW5       29.87R                  
WAUPACA        FAIR      69  64  82 W3        29.85R                  
WAUTOMA        FAIR      66  63  90 CALM      29.87R                  
WISC RAPIDS    FAIR      67  59  75 W6        29.88R                  
CAMP DOUGLAS   FAIR      64  63  97 W5        29.88R                  
$$
 
WIZ011>013-019>022-031-037>040-048>050-190300-
NORTHEAST WISCONSIN
  
CITY           SKY/WX    TMP DP  RH WIND       PRES   REMARKS
ANTIGO         FAIR      62  56  82 NW7       29.87R                  
SHAWANO        FAIR      71  61  70 W3        29.83R                  
OCONTO         FAIR      68  62  79 W6        29.81R                  
STURGEON BAY   FAIR      70  63  78 SW7       29.82R                  
GREEN BAY      FAIR      70  62  76 SW6       29.83R                  
MANITOWOC      FAIR      69  63  81 SW5       29.84R                  
APPLETON       CLEAR     68  55  64 SW6       29.83R                  
CLINTONVILLE   FAIR      68  58  70 W6        29.84R                  
OSHKOSH        FAIR      69  62  78 SW3       29.85R                  
$$
 
WIZ032>034-041-042-053>061-190300-
SOUTHWEST WISCONSIN
  
CITY           SKY/WX    TMP DP  RH WIND       PRES   REMARKS
LA CROSSE      FAIR      70  59  68 W7        29.88R                  
SPARTA         FAIR      61  59  91 CALM      29.90R                  
VIROQUA        FAIR      66  64  90 W3        29.90R                  
BOSCOBEL       FAIR      68  65  90 CALM      29.88R                  
PRAIRIE DU CHI FAIR      69  66  90 CALM      29.87R                  
PLATTEVILLE    FAIR      71  68  92 CALM      29.90R                  
$$

WIZ056-057-062-063-064-067-068-190300-
SOUTH CENTRAL WISCONSIN
  
CITY           SKY/WX    TMP DP  RH WIND       PRES   REMARKS
REEDSBURG      MOCLDY    69  64  85 CALM      29.87R                  
BARABOO/DELLS  FAIR      66  62  87 CALM      29.88R                  
LONE ROCK      FAIR      67  65  93 CALM      29.87R                  
MINERAL POINT    N/A     72  68  88 SW3       29.90R                  
MADISON        FAIR      69  64  84 SW3       29.87R                  
MIDDLETON      FAIR      67  22  17 CALM      29.89R                  
WATERTOWN      FAIR      68  67  98 CALM      29.87R                  
MONROE         FAIR      70  64  83 S5        29.90R                  
JANESVILLE     FAIR      70  68  94 SW3       29.89R                  
$$
 
WIZ051-052-058>065-066-070>072-190300-
SOUTHEAST WISCONSIN
  
CITY           SKY/WX    TMP DP  RH WIND       PRES   REMARKS
MILWAUKEE      FAIR      74  63  68 SW5       29.88R                  
WAUKESHA       CLEAR     68  63  83 SW7       29.89R                  
MILWAUKEE/TIMM FAIR      70  59  68 SW3       29.88R                  
RACINE         FAIR      72  63  73 W3        29.90R                  
KENOSHA        FAIR      68  66  93 W5        29.89R                  
FOND DU LAC    FAIR      68  63  84 SW5       29.86R                  
SHEBOYGAN      FAIR      66  62  87 SW5       29.85R                  
WEST BEND      FAIR      64  63  94 SW3       29.87R                  
JUNEAU         FAIR      65  63  93 CALM      29.89R                  
$$

LSZ147-162-190300-
LAKE SUPERIOR
  
STATION/POSITION TIME  TEMP    WIND        PRES    WAVE
                       AIR SEA DIR/SP/G            HT/PER
                 (UTC) (F)     (DEG/KT/KT) (MB)    (FT/S)
W MID LAKE BUOY  0150   66 63  290/ 14/ 16 1007.8R   1/ 3
DEVILS ISLAND    0200   68     280/ 16/ 18 1009.4R
SAXON HARBOR     0140   62     200/  6/  7 1009.5R
$$
 
LMZ867-665-643>646-190300-
LAKE MICHIGAN
  
STATION/POSITION TIME  TEMP    WIND        PRES    WAVE
                       AIR SEA DIR/SP/G            HT/PER
                 (UTC) (F)     (DEG/KT/KT) (MB)    (FT/S)
S GREEN BAY BUOY 0000   78 69  240/ 14/ 16 1008.6
N MID LAKE BUOY  0150   71 70  290/ 14/ 16 1008.6R   4/ 6
NORTHPORT PIER   0140   72     280/  4/  7 1008.5R
KEWAUNEE LAKESHO 0130   71     240/  2/  7 1009.0R
SHEBOYGAN LAKESH 0200   72     230/  5/  6 1010.6R
PORT WASHINGTON  0140   73     250/  3/  6 1011.9R
S MID LAKE BUOY  0150   74 73  280/ 12/ 14 1011.6R   2/ 4
KENOSHA   LAKESH 0200   75     260/  5/  8 1011.5
$$

TC  - TEMPERATURE IN CELSIUS
VSB - VISIBILITY IN STATUTE MILES
WCI - WIND CHILL INDEX
HX  - HEAT INDEX